Time,TemperatureF,DewpointF,PressureIn,WindDirection,WindDirectionDegrees,WindSpeedMPH,WindSpeedGustMPH,Humidity,HourlyPrecipIn,Conditions,Clouds,dailyrainin,SoftwareType,DateUTC
2013-02-17 00:00:00,29.0,19.8,29.73,ENE,58,5.0,5.0,68,0.00,,---,0.00,VWS V14.01,2013-02-17 05:00:00,
2013-02-17 00:05:00,28.9,19.7,29.71,North,3,4.0,9.0,68,0.00,,---,0.00,VWS V14.01,2013-02-17 05:05:00,
2013-02-17 00:10:00,28.8,19.2,29.70,NNE,23,2.0,9.0,67,0.00,,---,0.00,VWS V14.01,2013-02-17 05:10:00,
2013-02-17 00:15:00,28.8,19.2,29.70,NNW,344,3.0,11.0,67,0.00,,---,0.00,VWS V14.01,2013-02-17 05:15:00,
2013-02-17 00:20:00,28.7,19.1,29.70,NE,40,3.0,14.0,67,0.00,,---,0.00,VWS V14.01,2013-02-17 05:20:00,
2013-02-17 00:25:00,28.7,18.8,29.70,NNE,30,3.0,9.0,66,0.00,,---,0.00,VWS V14.01,2013-02-17 05:25:00,
2013-02-17 00:30:00,28.7,19.1,29.70,NNE,30,5.0,5.0,67,0.00,,---,0.00,VWS V14.01,2013-02-17 05:30:00,
2013-02-17 00:35:00,28.6,18.7,29.69,NNE,22,5.0,9.0,66,0.00,,---,0.00,VWS V14.01,2013-02-17 05:35:00,
2013-02-17 00:40:00,28.5,18.6,29.69,NNE,19,5.0,11.0,66,0.00,,---,0.00,VWS V14.01,2013-02-17 05:40:00,
2013-02-17 00:44:00,28.4,18.5,29.70,North,349,3.0,5.0,66,0.00,,---,0.00,VWS V14.01,2013-02-17 05:44:00,
2013-02-17 00:45:00,28.4,18.5,29.70,North,349,3.0,5.0,66,0.00,,---,0.00,VWS V14.01,2013-02-17 05:45:00,
2013-02-17 00:50:00,28.3,18.4,29.70,NNE,20,2.0,7.0,66,0.00,,---,0.00,VWS V14.01,2013-02-17 05:50:00,
2013-02-17 00:55:00,28.3,18.4,29.70,NNE,15,2.0,7.0,66,0.00,,---,0.00,VWS V14.01,2013-02-17 05:55:00,
2013-02-17 01:00:00,28.3,18.4,29.70,NNE,25,1.0,7.0,66,0.00,,---,0.00,VWS V14.01,2013-02-17 06:00:00,
2013-02-17 01:05:00,28.2,18.7,29.70,North,358,2.0,9.0,67,0.00,,---,0.00,VWS V14.01,2013-02-17 06:05:00,
2013-02-17 01:10:00,28.0,18.5,29.70,NNE,22,1.0,10.0,67,0.00,,---,0.00,VWS V14.01,2013-02-17 06:10:00,
2013-02-17 01:15:00,27.9,18.4,29.69,NNE,30,0.0,6.0,67,0.00,,---,0.00,VWS V14.01,2013-02-17 06:15:00,
2013-02-17 01:20:00,27.8,18.3,29.69,NNW,331,3.0,11.0,67,0.00,,---,0.00,VWS V14.01,2013-02-17 06:20:00,
2013-02-17 01:25:00,27.6,18.4,29.70,NNE,15,3.0,11.0,68,0.00,,---,0.00,VWS V14.01,2013-02-17 06:25:00,
2013-02-17 01:30:00,27.5,19.0,29.69,NNW,339,0.0,3.0,70,0.00,,---,0.00,VWS V14.01,2013-02-17 06:30:00,
2013-02-17 01:35:00,27.3,18.8,29.69,North,357,3.0,9.0,70,0.00,,---,0.00,VWS V14.01,2013-02-17 06:35:00,
2013-02-17 01:40:00,27.1,19.0,29.68,NNW,331,0.0,6.0,71,0.00,,---,0.00,VWS V14.01,2013-02-17 06:40:00,
2013-02-17 01:45:00,26.9,19.1,29.67,NE,40,3.0,7.0,72,0.00,,---,0.00,VWS V14.01,2013-02-17 06:45:00,
2013-02-17 01:50:00,26.6,18.5,29.66,NE,35,4.0,13.0,71,0.00,,---,0.00,VWS V14.01,2013-02-17 06:50:00,
2013-02-17 01:55:00,26.3,18.2,29.66,NE,40,7.0,10.0,71,0.00,,---,0.00,VWS V14.01,2013-02-17 06:55:00,
2013-02-17 02:00:00,26.1,18.3,29.66,NW,306,5.0,10.0,72,0.00,,---,0.00,VWS V14.01,2013-02-17 07:00:00,
2013-02-17 02:05:00,26.0,18.2,29.66,NNE,30,4.0,10.0,72,0.00,,---,0.00,VWS V14.01,2013-02-17 07:05:00,
2013-02-17 02:10:00,25.9,17.8,29.66,NE,40,3.0,12.0,71,0.00,,---,0.00,VWS V14.01,2013-02-17 07:10:00,
2013-02-17 02:15:00,25.9,17.8,29.66,NNE,13,4.0,15.0,71,0.00,,---,0.00,VWS V14.01,2013-02-17 07:15:00,
2013-02-17 02:20:00,25.9,17.5,29.67,WNW,298,1.0,9.0,70,0.00,,---,0.00,VWS V14.01,2013-02-17 07:20:00,
2013-02-17 02:25:00,25.9,16.8,29.66,WSW,239,2.0,10.0,68,0.00,,---,0.00,VWS V14.01,2013-02-17 07:25:00,
2013-02-17 02:30:00,26.0,16.9,29.67,North,3,4.0,6.0,68,0.00,,---,0.00,VWS V14.01,2013-02-17 07:30:00,
2013-02-17 02:35:00,25.9,16.1,29.66,North,356,1.0,10.0,66,0.00,,---,0.00,VWS V14.01,2013-02-17 07:35:00,
2013-02-17 02:40:00,26.0,15.9,29.66,NNE,12,3.0,12.0,65,0.00,,---,0.00,VWS V14.01,2013-02-17 07:40:00,
2013-02-17 02:45:00,25.9,16.1,29.65,NNE,26,3.0,6.0,66,0.00,,---,0.00,VWS V14.01,2013-02-17 07:45:00,
2013-02-17 02:50:00,26.0,15.1,29.65,NW,317,0.0,9.0,63,0.00,,---,0.00,VWS V14.01,2013-02-17 07:50:00,
2013-02-17 02:55:00,26.1,15.2,29.64,NE,44,3.0,11.0,63,0.00,,---,0.00,VWS V14.01,2013-02-17 07:55:00,
2013-02-17 03:00:00,26.1,14.9,29.63,North,6,4.0,10.0,62,0.00,,---,0.00,VWS V14.01,2013-02-17 08:00:00,
2013-02-17 03:05:00,26.2,14.6,29.62,North,6,0.0,13.0,61,0.00,,---,0.00,VWS V14.01,2013-02-17 08:05:00,
2013-02-17 03:10:00,26.2,14.6,29.62,NNW,345,9.0,11.0,61,0.00,,---,0.00,VWS V14.01,2013-02-17 08:10:00,
2013-02-17 03:15:00,26.1,14.1,29.62,North,354,2.0,9.0,60,0.00,,---,0.00,VWS V14.01,2013-02-17 08:15:00,
2013-02-17 03:20:00,26.1,14.5,29.62,NNE,30,1.0,3.0,61,0.00,,---,0.00,VWS V14.01,2013-02-17 08:20:00,
2013-02-17 03:25:00,26.0,14.0,29.61,NNE,21,4.0,11.0,60,0.00,,---,0.00,VWS V14.01,2013-02-17 08:25:00,
2013-02-17 03:30:00,26.0,14.4,29.62,NE,53,0.0,7.0,61,0.00,,---,0.00,VWS V14.01,2013-02-17 08:30:00,
2013-02-17 03:35:00,25.8,14.2,29.62,NNE,30,2.0,15.0,61,0.00,,---,0.00,VWS V14.01,2013-02-17 08:35:00,
2013-02-17 03:40:00,25.7,14.5,29.62,NW,314,3.0,12.0,62,0.00,,---,0.00,VWS V14.01,2013-02-17 08:40:00,
2013-02-17 03:45:00,25.4,14.6,29.61,NNW,340,9.0,9.0,63,0.00,,---,0.00,VWS V14.01,2013-02-17 08:45:00,
2013-02-17 03:50:00,25.2,15.4,29.60,NNE,14,6.0,13.0,66,0.00,,---,0.00,VWS V14.01,2013-02-17 08:50:00,
2013-02-17 03:55:00,25.0,15.6,29.60,NE,50,9.0,11.0,67,0.00,,---,0.00,VWS V14.01,2013-02-17 08:55:00,
2013-02-17 04:00:00,24.7,15.7,29.60,ENE,69,4.0,14.0,68,0.00,,---,0.00,VWS V14.01,2013-02-17 09:00:00,
2013-02-17 04:05:00,24.4,16.0,29.61,NNE,23,4.0,14.0,70,0.00,,---,0.00,VWS V14.01,2013-02-17 09:05:00,
2013-02-17 04:10:00,24.1,16.4,29.60,North,356,3.0,10.0,72,0.00,,---,0.00,VWS V14.01,2013-02-17 09:10:00,
2013-02-17 04:15:00,23.8,16.4,29.59,North,2,2.0,13.0,73,0.00,,---,0.00,VWS V14.01,2013-02-17 09:15:00,
2013-02-17 04:20:00,23.5,17.1,29.59,NNE,21,3.0,9.0,76,0.00,,---,0.00,VWS V14.01,2013-02-17 09:20:00,
2013-02-17 04:25:00,23.2,17.1,29.60,NNW,341,2.0,11.0,77,0.00,,---,0.00,VWS V14.01,2013-02-17 09:25:00,
2013-02-17 04:30:00,22.9,17.4,29.59,NNW,348,1.0,5.0,79,0.00,,---,0.00,VWS V14.01,2013-02-17 09:30:00,
2013-02-17 04:35:00,22.6,17.4,29.59,NNE,21,3.0,11.0,80,0.00,,---,0.00,VWS V14.01,2013-02-17 09:35:00,
2013-02-17 04:40:00,22.4,17.2,29.58,NE,35,5.0,13.0,80,0.00,,---,0.00,VWS V14.01,2013-02-17 09:40:00,
2013-02-17 04:45:00,22.3,17.4,29.59,North,6,4.0,11.0,81,0.00,,---,0.00,VWS V14.01,2013-02-17 09:45:00,
2013-02-17 04:50:00,22.2,17.3,29.58,North,351,4.0,15.0,81,0.00,,---,0.00,VWS V14.01,2013-02-17 09:50:00,
2013-02-17 04:55:00,22.1,17.2,29.59,NNW,328,3.0,13.0,81,0.00,,---,0.00,VWS V14.01,2013-02-17 09:55:00,
2013-02-17 05:00:00,22.1,17.2,29.58,WNW,287,7.0,12.0,81,0.00,,---,0.00,VWS V14.01,2013-02-17 10:00:00,
2013-02-17 05:05:00,22.2,16.7,29.58,West,276,0.0,11.0,79,0.00,,---,0.00,VWS V14.01,2013-02-17 10:05:00,
2013-02-17 05:10:00,22.2,16.1,29.57,NE,40,3.0,15.0,77,0.00,,---,0.00,VWS V14.01,2013-02-17 10:10:00,
2013-02-17 05:15:00,22.3,15.9,29.57,NW,316,2.0,15.0,76,0.00,,---,0.00,VWS V14.01,2013-02-17 10:15:00,
2013-02-17 05:20:00,22.2,15.5,29.57,NW,309,2.0,13.0,75,0.00,,---,0.00,VWS V14.01,2013-02-17 10:20:00,
2013-02-17 05:25:00,22.0,15.9,29.57,NNW,337,10.0,14.0,77,0.00,,---,0.00,VWS V14.01,2013-02-17 10:25:00,
2013-02-17 05:30:00,21.6,16.1,29.56,ENE,61,4.0,11.0,79,0.00,,---,0.00,VWS V14.01,2013-02-17 10:30:00,
2013-02-17 05:35:00,21.3,16.4,29.56,West,266,1.0,11.0,81,0.00,,---,0.00,VWS V14.01,2013-02-17 10:35:00,
2013-02-17 05:40:00,21.0,16.7,29.56,NNW,339,1.0,6.0,83,0.00,,---,0.00,VWS V14.01,2013-02-17 10:40:00,
2013-02-17 05:45:00,20.7,16.9,29.56,NNW,343,1.0,10.0,85,0.00,,---,0.00,VWS V14.01,2013-02-17 10:45:00,
2013-02-17 05:50:00,20.4,16.9,29.56,North,349,1.0,12.0,86,0.00,,---,0.00,VWS V14.01,2013-02-17 10:50:00,
2013-02-17 05:55:00,20.3,17.1,29.56,WNW,294,2.0,7.0,87,0.00,,---,0.00,VWS V14.01,2013-02-17 10:55:00,
2013-02-17 06:00:00,20.0,17.0,29.56,ENE,69,4.0,15.0,88,0.00,,---,0.00,VWS V14.01,2013-02-17 11:00:00,
2013-02-17 06:05:00,19.7,16.7,29.55,NNW,327,8.0,15.0,88,0.00,,---,0.00,VWS V14.01,2013-02-17 11:05:00,
2013-02-17 06:10:00,19.4,16.4,29.54,NNE,17,4.0,11.0,88,0.00,,---,0.00,VWS V14.01,2013-02-17 11:10:00,
2013-02-17 06:15:00,19.3,16.6,29.54,NNW,329,4.0,11.0,89,0.00,,---,0.00,VWS V14.01,2013-02-17 11:15:00,
2013-02-17 06:20:00,19.2,16.5,29.54,NNE,30,4.0,14.0,89,0.00,,---,0.00,VWS V14.01,2013-02-17 11:20:00,
2013-02-17 06:25:00,19.1,16.4,29.52,NE,48,7.0,12.0,89,0.00,,---,0.00,VWS V14.01,2013-02-17 11:25:00,
2013-02-17 06:30:00,19.0,16.0,29.52,NW,323,2.0,12.0,88,0.00,,---,0.00,VWS V14.01,2013-02-17 11:30:00,
2013-02-17 06:35:00,19.0,16.3,29.51,NE,45,3.0,10.0,89,0.00,,---,0.00,VWS V14.01,2013-02-17 11:35:00,
2013-02-17 06:40:00,18.9,16.2,29.51,NNW,346,2.0,12.0,89,0.00,,---,0.00,VWS V14.01,2013-02-17 11:40:00,
2013-02-17 06:45:00,18.8,16.1,29.51,NNE,13,4.0,13.0,89,0.00,,---,0.00,VWS V14.01,2013-02-17 11:45:00,
2013-02-17 06:50:00,18.8,15.8,29.51,NNW,344,4.0,12.0,88,0.00,,---,0.00,VWS V14.01,2013-02-17 11:50:00,
2013-02-17 06:55:00,18.7,15.7,29.51,NW,325,3.0,12.0,88,0.00,,---,0.00,VWS V14.01,2013-02-17 11:55:00,
2013-02-17 07:00:00,18.7,16.0,29.50,NE,46,6.0,11.0,89,0.00,,---,0.00,VWS V14.01,2013-02-17 12:00:00,
2013-02-17 07:05:00,18.6,15.9,29.50,NNW,339,3.0,10.0,89,0.00,,---,0.00,VWS V14.01,2013-02-17 12:05:00,
2013-02-17 07:10:00,18.6,15.9,29.50,NNW,339,1.0,6.0,89,0.00,,---,0.00,VWS V14.01,2013-02-17 12:10:00,
2013-02-17 07:15:00,18.4,15.4,29.49,NNW,337,5.0,12.0,88,0.00,,---,0.00,VWS V14.01,2013-02-17 12:15:00,
2013-02-17 07:20:00,18.3,15.4,29.49,WNW,303,9.0,17.0,88,0.00,,---,0.00,VWS V14.01,2013-02-17 12:20:00,
2013-02-17 07:25:00,18.2,15.2,29.49,NNE,16,4.0,12.0,88,0.00,,---,0.00,VWS V14.01,2013-02-17 12:25:00,
2013-02-17 07:30:00,18.1,15.1,29.49,NW,325,5.0,12.0,88,0.00,,---,0.00,VWS V14.01,2013-02-17 12:30:00,
2013-02-17 07:35:00,18.1,15.1,29.48,NE,35,7.0,13.0,88,0.00,,---,0.00,VWS V14.01,2013-02-17 12:35:00,
2013-02-17 07:40:00,18.0,15.1,29.48,WNW,298,10.0,14.0,88,0.00,,---,0.00,VWS V14.01,2013-02-17 12:40:00,
2013-02-17 07:45:00,18.0,15.1,29.49,NNW,338,3.0,14.0,88,0.00,,---,0.00,VWS V14.01,2013-02-17 12:45:00,
2013-02-17 07:50:00,17.9,14.9,29.48,NE,40,10.0,13.0,88,0.00,,---,0.00,VWS V14.01,2013-02-17 12:50:00,
2013-02-17 07:55:00,17.8,14.9,29.48,NNE,15,4.0,17.0,88,0.00,,---,0.00,VWS V14.01,2013-02-17 12:55:00,
2013-02-17 08:00:00,17.7,14.8,29.47,NNW,333,5.0,12.0,88,0.00,,---,0.00,VWS V14.01,2013-02-17 13:00:00,
2013-02-17 08:05:00,17.6,14.7,29.47,NW,314,4.0,15.0,88,0.00,,---,0.00,VWS V14.01,2013-02-17 13:05:00,
2013-02-17 08:10:00,17.6,14.7,29.46,NW,318,10.0,10.0,88,0.00,,---,0.00,VWS V14.01,2013-02-17 13:10:00,
2013-02-17 08:15:00,17.6,14.7,29.46,NW,314,1.0,13.0,88,0.00,,---,0.00,VWS V14.01,2013-02-17 13:15:00,
2013-02-17 08:20:00,17.6,14.7,29.46,NNW,347,4.0,16.0,88,0.00,,---,0.00,VWS V14.01,2013-02-17 13:20:00,
2013-02-17 08:25:00,17.6,14.9,29.46,NNE,23,6.0,12.0,89,0.00,,---,0.00,VWS V14.01,2013-02-17 13:25:00,
2013-02-17 08:30:00,17.5,14.6,29.46,WNW,300,6.0,17.0,88,0.00,,---,0.00,VWS V14.01,2013-02-17 13:30:00,
2013-02-17 08:35:00,17.6,14.9,29.45,NNW,339,4.0,15.0,89,0.00,,---,0.00,VWS V14.01,2013-02-17 13:35:00,
2013-02-17 08:40:00,17.6,14.9,29.45,NE,40,6.0,21.0,89,0.00,,---,0.00,VWS V14.01,2013-02-17 13:40:00,
2013-02-17 08:45:00,17.6,14.9,29.45,NNW,327,7.0,15.0,89,0.00,,---,0.00,VWS V14.01,2013-02-17 13:45:00,
2013-02-17 08:50:00,17.6,14.9,29.44,NW,318,5.0,13.0,89,0.00,,---,0.00,VWS V14.01,2013-02-17 13:50:00,
2013-02-17 08:55:00,17.6,14.9,29.44,NNE,25,6.0,14.0,89,0.00,,---,0.00,VWS V14.01,2013-02-17 13:55:00,
2013-02-17 09:00:00,17.6,14.9,29.44,NNE,20,3.0,10.0,89,0.00,,---,0.00,VWS V14.01,2013-02-17 14:00:00,
2013-02-17 09:05:00,17.6,15.2,29.43,WNW,286,3.0,14.0,90,0.00,,---,0.00,VWS V14.01,2013-02-17 14:05:00,
2013-02-17 09:10:00,17.6,14.9,29.43,NNE,13,5.0,11.0,89,0.00,,---,0.00,VWS V14.01,2013-02-17 14:10:00,
2013-02-17 09:15:00,17.6,14.9,29.42,North,6,4.0,17.0,89,0.00,,---,0.00,VWS V14.01,2013-02-17 14:15:00,
2013-02-17 09:20:00,17.6,15.2,29.42,NW,316,7.0,13.0,90,0.00,,---,0.00,VWS V14.01,2013-02-17 14:20:00,
2013-02-17 09:25:00,17.6,14.9,29.42,North,354,5.0,13.0,89,0.00,,---,0.00,VWS V14.01,2013-02-17 14:25:00,
2013-02-17 09:30:00,17.6,15.2,29.42,NNE,25,6.0,19.0,90,0.00,,---,0.00,VWS V14.01,2013-02-17 14:30:00,
2013-02-17 09:35:00,17.7,15.0,29.42,NNW,346,3.0,12.0,89,0.00,,---,0.00,VWS V14.01,2013-02-17 14:35:00,
2013-02-17 09:40:00,17.7,15.0,29.41,North,356,5.0,13.0,89,0.00,,---,0.00,VWS V14.01,2013-02-17 14:40:00,
2013-02-17 09:45:00,17.7,15.0,29.41,NE,47,9.0,13.0,89,0.00,,---,0.00,VWS V14.01,2013-02-17 14:45:00,
2013-02-17 09:50:00,17.7,15.0,29.41,NW,305,5.0,14.0,89,0.00,,---,0.00,VWS V14.01,2013-02-17 14:50:00,
2013-02-17 09:55:00,17.7,15.0,29.41,NNW,337,3.0,13.0,89,0.00,,---,0.00,VWS V14.01,2013-02-17 14:55:00,
2013-02-17 10:00:00,17.9,15.2,29.41,SSE,161,2.0,11.0,89,0.00,,---,0.00,VWS V14.01,2013-02-17 15:00:00,
2013-02-17 10:05:00,17.9,15.2,29.41,North,359,2.0,10.0,89,0.00,,---,0.00,VWS V14.01,2013-02-17 15:05:00,
2013-02-17 10:10:00,17.9,15.2,29.40,NNW,337,5.0,16.0,89,0.00,,---,0.00,VWS V14.01,2013-02-17 15:10:00,
2013-02-17 10:15:00,17.9,15.2,29.40,NNW,329,9.0,16.0,89,0.00,,---,0.00,VWS V14.01,2013-02-17 15:15:00,
2013-02-17 10:20:00,17.9,15.2,29.40,NW,319,4.0,9.0,89,0.00,,---,0.00,VWS V14.01,2013-02-17 15:20:00,
2013-02-17 10:25:00,18.0,15.3,29.40,North,353,4.0,13.0,89,0.00,,---,0.00,VWS V14.01,2013-02-17 15:25:00,
2013-02-17 10:30:00,18.0,15.6,29.40,NNE,24,2.0,13.0,90,0.00,,---,0.00,VWS V14.01,2013-02-17 15:30:00,
2013-02-17 10:35:00,18.1,15.7,29.40,North,8,4.0,18.0,90,0.00,,---,0.00,VWS V14.01,2013-02-17 15:35:00,
2013-02-17 10:40:00,18.1,15.7,29.40,NNW,345,3.0,14.0,90,0.00,,---,0.00,VWS V14.01,2013-02-17 15:40:00,
2013-02-17 10:45:00,18.3,15.9,29.39,NNW,330,6.0,10.0,90,0.00,,---,0.00,VWS V14.01,2013-02-17 15:45:00,
2013-02-17 10:50:00,18.3,15.6,29.40,NW,324,3.0,15.0,89,0.00,,---,0.00,VWS V14.01,2013-02-17 15:50:00,
2013-02-17 10:55:00,18.3,15.6,29.40,North,360,2.0,17.0,89,0.00,,---,0.00,VWS V14.01,2013-02-17 15:55:00,
2013-02-17 11:00:00,18.3,15.6,29.40,NNW,329,9.0,22.0,89,0.00,,---,0.00,VWS V14.01,2013-02-17 16:00:00,
2013-02-17 11:05:00,18.4,15.7,29.39,NE,35,15.0,15.0,89,0.00,,---,0.00,VWS V14.01,2013-02-17 16:05:00,
2013-02-17 11:10:00,18.4,15.7,29.40,NW,314,5.0,18.0,89,0.00,,---,0.00,VWS V14.01,2013-02-17 16:10:00,
2013-02-17 11:15:00,18.5,15.8,29.40,North,350,4.0,10.0,89,0.00,,---,0.00,VWS V14.01,2013-02-17 16:15:00,
2013-02-17 11:20:00,18.5,15.8,29.40,North,8,4.0,18.0,89,0.00,,---,0.00,VWS V14.01,2013-02-17 16:20:00,
2013-02-17 11:25:00,18.6,15.9,29.40,ENE,65,6.0,10.0,89,0.00,,---,0.00,VWS V14.01,2013-02-17 16:25:00,
2013-02-17 11:30:00,18.6,15.9,29.40,NW,312,6.0,15.0,89,0.00,,---,0.00,VWS V14.01,2013-02-17 16:30:00,
2013-02-17 11:35:00,18.6,15.9,29.40,NNW,340,7.0,14.0,89,0.00,,---,0.00,VWS V14.01,2013-02-17 16:35:00,
2013-02-17 11:40:00,18.6,15.9,29.39,North,10,2.0,15.0,89,0.00,,---,0.00,VWS V14.01,2013-02-17 16:40:00,
2013-02-17 11:45:00,18.7,16.0,29.39,NNE,13,3.0,12.0,89,0.00,,---,0.00,VWS V14.01,2013-02-17 16:45:00,
2013-02-17 11:50:00,18.7,16.0,29.39,North,5,3.0,15.0,89,0.00,,---,0.00,VWS V14.01,2013-02-17 16:50:00,
2013-02-17 11:55:00,18.7,16.0,29.39,NW,320,5.0,12.0,89,0.00,,---,0.00,VWS V14.01,2013-02-17 16:55:00,
2013-02-17 12:00:00,18.8,16.1,29.39,North,9,9.0,11.0,89,0.00,,---,0.00,VWS V14.01,2013-02-17 17:00:00,
2013-02-17 12:05:00,18.9,16.2,29.39,North,353,2.0,13.0,89,0.00,,---,0.00,VWS V14.01,2013-02-17 17:05:00,
2013-02-17 12:10:00,18.9,16.2,29.39,NNE,22,9.0,12.0,89,0.00,,---,0.00,VWS V14.01,2013-02-17 17:10:00,
2013-02-17 12:15:00,18.9,16.2,29.39,North,349,6.0,11.0,89,0.00,,---,0.00,VWS V14.01,2013-02-17 17:15:00,
2013-02-17 12:20:00,18.9,16.2,29.39,North,350,7.0,14.0,89,0.00,,---,0.00,VWS V14.01,2013-02-17 17:20:00,
2013-02-17 12:25:00,19.0,16.0,29.39,North,352,2.0,13.0,88,0.00,,---,0.00,VWS V14.01,2013-02-17 17:25:00,
2013-02-17 12:30:00,19.1,16.1,29.39,NNW,332,3.0,11.0,88,0.00,,---,0.00,VWS V14.01,2013-02-17 17:30:00,
2013-02-17 12:35:00,19.0,16.0,29.39,NE,50,5.0,14.0,88,0.00,,---,0.00,VWS V14.01,2013-02-17 17:35:00,
2013-02-17 12:40:00,19.0,16.0,29.39,North,356,7.0,16.0,88,0.00,,---,0.00,VWS V14.01,2013-02-17 17:40:00,
2013-02-17 12:45:00,18.9,15.9,29.39,North,6,3.0,15.0,88,0.00,,---,0.00,VWS V14.01,2013-02-17 17:45:00,
2013-02-17 12:50:00,18.9,15.7,29.39,WNW,286,7.0,16.0,87,0.00,,---,0.00,VWS V14.01,2013-02-17 17:50:00,
2013-02-17 12:55:00,19.0,15.8,29.40,North,6,6.0,15.0,87,0.00,,---,0.00,VWS V14.01,2013-02-17 17:55:00,
2013-02-17 13:00:00,19.1,15.6,29.40,North,349,3.0,14.0,86,0.00,,---,0.00,VWS V14.01,2013-02-17 18:00:00,
2013-02-17 13:05:00,19.3,15.5,29.40,NNW,333,5.0,18.0,85,0.00,,---,0.00,VWS V14.01,2013-02-17 18:05:00,
2013-02-17 13:10:00,19.4,15.4,29.40,NE,40,2.0,11.0,84,0.00,,---,0.00,VWS V14.01,2013-02-17 18:10:00,
2013-02-17 13:15:00,19.6,15.3,29.40,NW,318,4.0,15.0,83,0.00,,---,0.00,VWS V14.01,2013-02-17 18:15:00,
2013-02-17 13:20:00,19.8,14.9,29.40,NNE,17,4.0,13.0,81,0.00,,---,0.00,VWS V14.01,2013-02-17 18:20:00,
2013-02-17 13:25:00,20.0,14.8,29.40,NNW,348,12.0,15.0,80,0.00,,---,0.00,VWS V14.01,2013-02-17 18:25:00,
2013-02-17 13:30:00,20.3,14.6,29.40,NW,324,6.0,18.0,78,0.00,,---,0.00,VWS V14.01,2013-02-17 18:30:00,
2013-02-17 13:35:00,20.5,14.1,29.40,West,281,9.0,15.0,76,0.00,,---,0.00,VWS V14.01,2013-02-17 18:35:00,
2013-02-17 13:40:00,20.7,13.4,29.40,North,360,5.0,16.0,73,0.00,,---,0.00,VWS V14.01,2013-02-17 18:40:00,
2013-02-17 13:45:00,20.9,13.3,29.40,WNW,289,10.0,19.0,72,0.00,,---,0.00,VWS V14.01,2013-02-17 18:45:00,
2013-02-17 13:50:00,21.1,13.5,29.40,NW,323,5.0,15.0,72,0.00,,---,0.00,VWS V14.01,2013-02-17 18:50:00,
2013-02-17 13:55:00,21.3,13.1,29.40,NW,321,4.0,17.0,70,0.00,,---,0.00,VWS V14.01,2013-02-17 18:55:00,
2013-02-17 14:00:00,21.5,12.6,29.40,NW,318,1.0,12.0,68,0.00,,---,0.00,VWS V14.01,2013-02-17 19:00:00,
2013-02-17 14:05:00,21.4,11.8,29.40,NW,325,5.0,20.0,66,0.00,,---,0.00,VWS V14.01,2013-02-17 19:05:00,
2013-02-17 14:10:00,21.5,11.9,29.40,WNW,286,3.0,15.0,66,0.00,,---,0.00,VWS V14.01,2013-02-17 19:10:00,
2013-02-17 14:15:00,21.4,11.5,29.41,WNW,293,4.0,18.0,65,0.00,,---,0.00,VWS V14.01,2013-02-17 19:15:00,
2013-02-17 14:20:00,21.6,11.0,29.41,East,81,4.0,17.0,63,0.00,,---,0.00,VWS V14.01,2013-02-17 19:20:00,
2013-02-17 14:25:00,21.7,10.3,29.41,NE,40,7.0,16.0,61,0.00,,---,0.00,VWS V14.01,2013-02-17 19:25:00,
2013-02-17 14:30:00,21.7,10.7,29.41,North,8,6.0,13.0,62,0.00,,---,0.00,VWS V14.01,2013-02-17 19:30:00,
2013-02-17 14:35:00,21.9,10.2,29.41,NW,314,11.0,16.0,60,0.00,,---,0.00,VWS V14.01,2013-02-17 19:35:00,
2013-02-17 14:40:00,22.0,9.9,29.41,NNE,30,2.0,17.0,59,0.00,,---,0.00,VWS V14.01,2013-02-17 19:40:00,
2013-02-17 14:45:00,22.2,10.1,29.41,South,190,3.0,16.0,59,0.00,,---,0.00,VWS V14.01,2013-02-17 19:45:00,
2013-02-17 14:50:00,22.1,9.6,29.42,North,8,3.0,21.0,58,0.00,,---,0.00,VWS V14.01,2013-02-17 19:50:00,
2013-02-17 14:55:00,22.0,9.5,29.42,ENE,62,2.0,17.0,58,0.00,,---,0.00,VWS V14.01,2013-02-17 19:55:00,
2013-02-17 15:00:00,21.8,9.7,29.42,NNE,25,6.0,12.0,59,0.00,,---,0.00,VWS V14.01,2013-02-17 20:00:00,
2013-02-17 15:05:00,21.6,8.3,29.42,North,360,4.0,15.0,56,0.00,,---,0.00,VWS V14.01,2013-02-17 20:05:00,
2013-02-17 15:10:00,21.5,8.2,29.42,NW,307,7.0,15.0,56,0.00,,---,0.00,VWS V14.01,2013-02-17 20:10:00,
2013-02-17 15:15:00,21.4,8.6,29.42,North,3,4.0,17.0,57,0.00,,---,0.00,VWS V14.01,2013-02-17 20:15:00,
2013-02-17 15:20:00,21.3,8.1,29.43,West,281,4.0,12.0,56,0.00,,---,0.00,VWS V14.01,2013-02-17 20:20:00,
2013-02-17 15:25:00,21.2,8.0,29.44,NE,46,9.0,16.0,56,0.00,,---,0.00,VWS V14.01,2013-02-17 20:25:00,
2013-02-17 15:30:00,21.1,7.5,29.44,North,360,7.0,14.0,55,0.00,,---,0.00,VWS V14.01,2013-02-17 20:30:00,
2013-02-17 15:35:00,20.8,7.2,29.44,North,6,5.0,25.0,55,0.00,,---,0.00,VWS V14.01,2013-02-17 20:35:00,
2013-02-17 15:40:00,20.7,7.1,29.44,NNW,346,4.0,22.0,55,0.00,,---,0.00,VWS V14.01,2013-02-17 20:40:00,
2013-02-17 15:45:00,20.7,7.1,29.44,NW,315,5.0,17.0,55,0.00,,---,0.00,VWS V14.01,2013-02-17 20:45:00,
2013-02-17 15:50:00,20.6,6.6,29.45,NE,46,11.0,20.0,54,0.00,,---,0.00,VWS V14.01,2013-02-17 20:50:00,
2013-02-17 15:55:00,20.6,6.6,29.45,NNW,327,11.0,23.0,54,0.00,,---,0.00,VWS V14.01,2013-02-17 20:55:00,
2013-02-17 16:00:00,20.6,6.2,29.45,NNW,337,4.0,18.0,53,0.00,,---,0.00,VWS V14.01,2013-02-17 21:00:00,
2013-02-17 16:05:00,20.6,6.2,29.46,NNW,336,5.0,22.0,53,0.00,,---,0.00,VWS V14.01,2013-02-17 21:05:00,
2013-02-17 16:10:00,20.6,5.8,29.46,NW,306,2.0,20.0,52,0.00,,---,0.00,VWS V14.01,2013-02-17 21:10:00,
2013-02-17 16:15:00,20.6,5.3,29.46,NW,321,6.0,19.0,51,0.00,,---,0.00,VWS V14.01,2013-02-17 21:15:00,
2013-02-17 16:20:00,20.6,5.8,29.47,NNE,14,10.0,17.0,52,0.00,,---,0.00,VWS V14.01,2013-02-17 21:20:00,
2013-02-17 16:25:00,20.6,5.3,29.47,NNW,348,4.0,15.0,51,0.00,,---,0.00,VWS V14.01,2013-02-17 21:25:00,
2013-02-17 16:30:00,20.6,5.3,29.47,NW,312,6.0,16.0,51,0.00,,---,0.00,VWS V14.01,2013-02-17 21:30:00,
2013-02-17 16:35:00,20.6,4.9,29.48,NNE,20,4.0,15.0,50,0.00,,---,0.00,VWS V14.01,2013-02-17 21:35:00,
2013-02-17 16:40:00,20.7,5.0,29.48,North,6,9.0,13.0,50,0.00,,---,0.00,VWS V14.01,2013-02-17 21:40:00,
2013-02-17 16:45:00,20.6,4.9,29.48,NW,308,13.0,19.0,50,0.00,,---,0.00,VWS V14.01,2013-02-17 21:45:00,
2013-02-17 16:50:00,20.7,4.6,29.49,North,2,10.0,21.0,49,0.00,,---,0.00,VWS V14.01,2013-02-17 21:50:00,
2013-02-17 16:55:00,20.7,4.6,29.49,North,356,6.0,17.0,49,0.00,,---,0.00,VWS V14.01,2013-02-17 21:55:00,
2013-02-17 17:00:00,20.8,4.2,29.49,NW,325,5.0,27.0,48,0.00,,---,0.00,VWS V14.01,2013-02-17 22:00:00,
2013-02-17 17:05:00,20.8,4.2,29.50,WNW,298,10.0,27.0,48,0.00,,---,0.00,VWS V14.01,2013-02-17 22:05:00,
2013-02-17 17:10:00,20.8,3.8,29.50,NNW,335,6.0,15.0,47,0.00,,---,0.00,VWS V14.01,2013-02-17 22:10:00,
2013-02-17 17:15:00,20.8,3.8,29.50,NE,48,7.0,17.0,47,0.00,,---,0.00,VWS V14.01,2013-02-17 22:15:00,
2013-02-17 17:20:00,20.8,3.8,29.50,NW,312,4.0,21.0,47,0.00,,---,0.00,VWS V14.01,2013-02-17 22:20:00,
2013-02-17 17:25:00,20.9,3.8,29.50,NE,48,6.0,21.0,47,0.00,,---,0.00,VWS V14.01,2013-02-17 22:25:00,
2013-02-17 17:30:00,20.9,3.8,29.51,NNW,339,6.0,18.0,47,0.00,,---,0.00,VWS V14.01,2013-02-17 22:30:00,
2013-02-17 17:35:00,21.0,3.5,29.50,NNW,330,6.0,25.0,46,0.00,,---,0.00,VWS V14.01,2013-02-17 22:35:00,
2013-02-17 17:40:00,21.1,4.0,29.51,NE,46,9.0,15.0,47,0.00,,---,0.00,VWS V14.01,2013-02-17 22:40:00,
2013-02-17 17:45:00,21.0,3.9,29.52,NNW,346,6.0,12.0,47,0.00,,---,0.00,VWS V14.01,2013-02-17 22:45:00,
2013-02-17 17:50:00,21.0,3.5,29.51,NNW,335,6.0,17.0,46,0.00,,---,0.00,VWS V14.01,2013-02-17 22:50:00,
2013-02-17 17:55:00,21.1,4.0,29.52,NNW,331,9.0,21.0,47,0.00,,---,0.00,VWS V14.01,2013-02-17 22:55:00,
2013-02-17 18:00:00,21.1,4.0,29.53,ENE,57,7.0,20.0,47,0.00,,---,0.00,VWS V14.01,2013-02-17 23:00:00,
2013-02-17 18:05:00,21.1,4.0,29.52,WNW,302,13.0,17.0,47,0.00,,---,0.00,VWS V14.01,2013-02-17 23:05:00,
2013-02-17 18:10:00,21.1,4.0,29.52,SW,235,3.0,25.0,47,0.00,,---,0.00,VWS V14.01,2013-02-17 23:10:00,
2013-02-17 18:15:00,21.1,4.0,29.52,East,101,10.0,17.0,47,0.00,,---,0.00,VWS V14.01,2013-02-17 23:15:00,
2013-02-17 18:20:00,21.1,4.0,29.52,WNW,285,5.0,17.0,47,0.00,,---,0.00,VWS V14.01,2013-02-17 23:20:00,
2013-02-17 18:25:00,21.1,4.0,29.52,North,360,10.0,19.0,47,0.00,,---,0.00,VWS V14.01,2013-02-17 23:25:00,
2013-02-17 18:30:00,21.1,4.0,29.53,North,356,5.0,15.0,47,0.00,,---,0.00,VWS V14.01,2013-02-17 23:30:00,
2013-02-17 18:35:00,21.1,4.0,29.52,NW,308,3.0,15.0,47,0.00,,---,0.00,VWS V14.01,2013-02-17 23:35:00,
2013-02-17 18:40:00,21.1,4.0,29.52,North,351,3.0,16.0,47,0.00,,---,0.00,VWS V14.01,2013-02-17 23:40:00,
2013-02-17 18:45:00,21.1,4.0,29.53,NE,46,4.0,12.0,47,0.00,,---,0.00,VWS V14.01,2013-02-17 23:45:00,
2013-02-17 18:50:00,21.1,4.0,29.53,NE,50,4.0,14.0,47,0.00,,---,0.00,VWS V14.01,2013-02-17 23:50:00,
2013-02-17 18:55:00,21.0,3.9,29.53,NW,325,12.0,12.0,47,0.00,,---,0.00,VWS V14.01,2013-02-17 23:55:00,
2013-02-17 19:00:00,21.0,3.9,29.53,WSW,257,16.0,19.0,47,0.00,,---,0.00,VWS V14.01,2013-02-18 00:00:00,
2013-02-17 19:05:00,21.0,3.9,29.53,North,355,5.0,17.0,47,0.00,,---,0.00,VWS V14.01,2013-02-18 00:05:00,
2013-02-17 19:10:00,21.0,3.9,29.54,NNW,327,1.0,13.0,47,0.00,,---,0.00,VWS V14.01,2013-02-18 00:10:00,
2013-02-17 19:15:00,20.9,3.8,29.54,WNW,284,10.0,17.0,47,0.00,,---,0.00,VWS V14.01,2013-02-18 00:15:00,
2013-02-17 19:20:00,20.8,3.8,29.54,NNW,327,7.0,15.0,47,0.00,,---,0.00,VWS V14.01,2013-02-18 00:20:00,
2013-02-17 19:25:00,20.7,4.6,29.54,NNW,346,2.0,14.0,49,0.00,,---,0.00,VWS V14.01,2013-02-18 00:25:00,
2013-02-17 19:30:00,20.7,4.1,29.54,North,353,3.0,14.0,48,0.00,,---,0.00,VWS V14.01,2013-02-18 00:30:00,
2013-02-17 19:35:00,20.7,4.1,29.54,North,11,5.0,18.0,48,0.00,,---,0.00,VWS V14.01,2013-02-18 00:35:00,
2013-02-17 19:40:00,20.6,4.5,29.55,North,11,17.0,17.0,49,0.00,,---,0.00,VWS V14.01,2013-02-18 00:40:00,
2013-02-17 19:45:00,20.5,4.4,29.55,NNE,15,13.0,18.0,49,0.00,,---,0.00,VWS V14.01,2013-02-18 00:45:00,
2013-02-17 19:50:00,20.5,4.4,29.54,NNE,20,14.0,14.0,49,0.00,,---,0.00,VWS V14.01,2013-02-18 00:50:00,
2013-02-17 19:55:00,20.4,4.3,29.55,NNW,347,10.0,18.0,49,0.00,,---,0.00,VWS V14.01,2013-02-18 00:55:00,
2013-02-17 20:00:00,20.4,4.3,29.55,WNW,298,7.0,14.0,49,0.00,,---,0.00,VWS V14.01,2013-02-18 01:00:00,
2013-02-17 20:05:00,20.4,3.8,29.56,NW,321,3.0,15.0,48,0.00,,---,0.00,VWS V14.01,2013-02-18 01:05:00,
2013-02-17 20:10:00,20.3,4.2,29.56,NNE,17,9.0,15.0,49,0.00,,---,0.00,VWS V14.01,2013-02-18 01:10:00,
2013-02-17 20:15:00,20.2,3.7,29.56,NNE,30,4.0,13.0,48,0.00,,---,0.00,VWS V14.01,2013-02-18 01:15:00,
2013-02-17 20:20:00,20.2,3.7,29.57,NNW,339,7.0,14.0,48,0.00,,---,0.00,VWS V14.01,2013-02-18 01:20:00,
2013-02-17 20:25:00,20.2,3.7,29.57,NNE,15,11.0,11.0,48,0.00,,---,0.00,VWS V14.01,2013-02-18 01:25:00,
2013-02-17 20:30:00,20.0,3.5,29.57,NNE,12,9.0,13.0,48,0.00,,---,0.00,VWS V14.01,2013-02-18 01:30:00,
2013-02-17 20:35:00,20.0,3.0,29.57,NW,315,7.0,20.0,47,0.00,,---,0.00,VWS V14.01,2013-02-18 01:35:00,
2013-02-17 20:40:00,19.9,2.9,29.57,NNW,331,4.0,15.0,47,0.00,,---,0.00,VWS V14.01,2013-02-18 01:40:00,
2013-02-17 20:45:00,19.8,2.8,29.58,West,267,4.0,11.0,47,0.00,,---,0.00,VWS V14.01,2013-02-18 01:45:00,
2013-02-17 20:50:00,19.7,3.2,29.58,SSE,163,3.0,14.0,48,0.00,,---,0.00,VWS V14.01,2013-02-18 01:50:00,
2013-02-17 20:55:00,19.6,2.7,29.58,NNE,17,2.0,13.0,47,0.00,,---,0.00,VWS V14.01,2013-02-18 01:55:00,
2013-02-17 21:00:00,19.5,2.6,29.59,NNW,333,6.0,13.0,47,0.00,,---,0.00,VWS V14.01,2013-02-18 02:00:00,
2013-02-17 21:05:00,19.4,2.5,29.59,NW,312,2.0,12.0,47,0.00,,---,0.00,VWS V14.01,2013-02-18 02:05:00,
2013-02-17 21:10:00,19.3,1.9,29.60,North,1,5.0,14.0,46,0.00,,---,0.00,VWS V14.01,2013-02-18 02:10:00,
2013-02-17 21:15:00,19.1,1.7,29.60,NE,35,4.0,17.0,46,0.00,,---,0.00,VWS V14.01,2013-02-18 02:15:00,
2013-02-17 21:20:00,19.0,2.1,29.60,NNW,337,2.0,11.0,47,0.00,,---,0.00,VWS V14.01,2013-02-18 02:20:00,
2013-02-17 21:25:00,18.9,2.0,29.61,North,5,5.0,14.0,47,0.00,,---,0.00,VWS V14.01,2013-02-18 02:25:00,
2013-02-17 21:30:00,18.8,2.4,29.61,NNW,347,5.0,15.0,48,0.00,,---,0.00,VWS V14.01,2013-02-18 02:30:00,
2013-02-17 21:35:00,18.7,1.8,29.62,NE,44,7.0,16.0,47,0.00,,---,0.00,VWS V14.01,2013-02-18 02:35:00,
2013-02-17 21:40:00,18.6,2.2,29.62,NNW,327,4.0,15.0,48,0.00,,---,0.00,VWS V14.01,2013-02-18 02:40:00,
2013-02-17 21:45:00,18.5,1.6,29.62,NW,310,2.0,21.0,47,0.00,,---,0.00,VWS V14.01,2013-02-18 02:45:00,
2013-02-17 21:50:00,18.4,1.5,29.62,NW,314,2.0,24.0,47,0.00,,---,0.00,VWS V14.01,2013-02-18 02:50:00,
2013-02-17 21:55:00,18.3,1.5,29.63,NW,323,11.0,17.0,47,0.00,,---,0.00,VWS V14.01,2013-02-18 02:55:00,
2013-02-17 22:00:00,18.1,1.3,29.63,West,277,5.0,13.0,47,0.00,,---,0.00,VWS V14.01,2013-02-18 03:00:00,
2013-02-17 22:05:00,18.0,1.6,29.63,NNW,337,4.0,14.0,48,0.00,,---,0.00,VWS V14.01,2013-02-18 03:05:00,
2013-02-17 22:10:00,17.8,1.5,29.64,WNW,285,6.0,16.0,48,0.00,,---,0.00,VWS V14.01,2013-02-18 03:10:00,
2013-02-17 22:15:00,17.6,1.3,29.64,WNW,292,9.0,12.0,48,0.00,,---,0.00,VWS V14.01,2013-02-18 03:15:00,
2013-02-17 22:20:00,17.5,1.6,29.64,NNW,335,2.0,16.0,49,0.00,,---,0.00,VWS V14.01,2013-02-18 03:20:00,
2013-02-17 22:25:00,17.4,1.1,29.65,NW,317,3.0,15.0,48,0.00,,---,0.00,VWS V14.01,2013-02-18 03:25:00,
2013-02-17 22:30:00,17.3,1.4,29.65,North,358,4.0,12.0,49,0.00,,---,0.00,VWS V14.01,2013-02-18 03:30:00,
2013-02-17 22:35:00,17.2,1.3,29.65,NW,304,4.0,11.0,49,0.00,,---,0.00,VWS V14.01,2013-02-18 03:35:00,
2013-02-17 22:40:00,17.1,1.2,29.65,North,7,4.0,10.0,49,0.00,,---,0.00,VWS V14.01,2013-02-18 03:40:00,
2013-02-17 22:45:00,17.0,1.6,29.65,NNW,340,1.0,12.0,50,0.00,,---,0.00,VWS V14.01,2013-02-18 03:45:00,
2013-02-17 22:50:00,16.9,1.5,29.66,NE,47,3.0,12.0,50,0.00,,---,0.00,VWS V14.01,2013-02-18 03:50:00,
2013-02-17 22:55:00,16.8,1.4,29.66,NNW,327,6.0,14.0,50,0.00,,---,0.00,VWS V14.01,2013-02-18 03:55:00,
2013-02-17 23:00:00,16.7,1.3,29.66,NNE,23,2.0,9.0,50,0.00,,---,0.00,VWS V14.01,2013-02-18 04:00:00,
2013-02-17 23:05:00,16.7,1.7,29.66,NNW,339,3.0,7.0,51,0.00,,---,0.00,VWS V14.01,2013-02-18 04:05:00,
2013-02-17 23:10:00,16.6,1.2,29.66,North,356,4.0,13.0,50,0.00,,---,0.00,VWS V14.01,2013-02-18 04:10:00,
2013-02-17 23:15:00,16.6,1.6,29.66,NNW,329,6.0,13.0,51,0.00,,---,0.00,VWS V14.01,2013-02-18 04:15:00,
2013-02-17 23:20:00,16.5,1.5,29.66,North,6,9.0,10.0,51,0.00,,---,0.00,VWS V14.01,2013-02-18 04:20:00,
2013-02-17 23:25:00,16.4,1.5,29.67,NNW,332,9.0,13.0,51,0.00,,---,0.00,VWS V14.01,2013-02-18 04:25:00,
2013-02-17 23:30:00,16.3,1.4,29.67,NW,325,4.0,12.0,51,0.00,,---,0.00,VWS V14.01,2013-02-18 04:30:00,
2013-02-17 23:35:00,16.2,1.3,29.67,NW,314,2.0,14.0,51,0.00,,---,0.00,VWS V14.01,2013-02-18 04:35:00,
2013-02-17 23:40:00,16.2,1.7,29.67,WNW,285,5.0,17.0,52,0.00,,---,0.00,VWS V14.01,2013-02-18 04:40:00,
2013-02-17 23:45:00,16.2,1.7,29.68,NNW,344,3.0,17.0,52,0.00,,---,0.00,VWS V14.01,2013-02-18 04:45:00,
2013-02-17 23:50:00,16.1,1.2,29.67,NNW,327,6.0,18.0,51,0.00,,---,0.00,VWS V14.01,2013-02-18 04:50:00,
2013-02-17 23:55:00,16.1,1.6,29.67,West,279,8.0,15.0,52,0.00,,---,0.00,VWS V14.01,2013-02-18 04:55:00,